Torna al catalogo

STARLINK-5958

AttivoComunicazioniVLEO
NORAD 56921·PAYLOAD·🇺🇸 United States

Lanciato Jun 12, 2023 da Cape Canaveral Space Force Station

Loading…

Prossimi Passaggi (prossime 24 ore)

TLE

AggiornatoSource: CelesTrak SupGP

Epoca: Sep 14, 2026, 22:28 UTC

1 56921C 23083AX  26257.93659722  .00052032  00000+0  18846-2 0  2571
2 56921  43.0010  81.6194 0001419 268.1086 119.2012 15.27552783    10

Traccia STARLINK-5958 in tempo reale con AllMySat

Download on the App Store